Location: Ferintosh
(52.7647°N, 112.9692°W)
Time: 13:35:46
(UTC+00:00)

Transit 2A Rocket - Pass Details

Date: 26 May 2024
Orbit: 583 x 910 km, 66.7° (Epoch: 22 June)

Event Time Altitude Azimuth Distance (km) Brightness Sun altitude
Rises 14:02:28 0° 287° (WNW) 3,192 7.7 21.8°
Reaches altitude 10° 14:05:24 10° 304° (NW) 2,332 7.1 22.2°
Maximum altitude 14:09:22 20° 352° (N) 1,793 7.0 22.8°
Drops below altitude 10° 14:13:34 10° 39° (NE) 2,487 8.4 23.4°
Sets 14:16:49 0° 55° (NE) 3,473 9.3 23.9°
